Regional Weather Roundup
Issued by NWS Charleston, SC

Current Version | Previous Version | Graphics & Text | Print | Product List | Glossary On
Versions: 1 2 3 4 5 6 7 8 9 10 11 12 13 14 15 16 17 18 19 20 21 22 23 24 25 26 27 28 29 30 31 32 33 34 35 36 37 38 39 40 41 42 43 44 45 46 47 48 49 50
000
ASUS42 KCHS 181527
RWRCHS

REGIONAL WEATHER ROUNDUP
NATIONAL WEATHER SERVICE CHARLESTON SC
1100 AM EDT FRI AUG 18 2017

NOTE: "FAIR" INDICATES FEW OR NO CLOUDS BELOW 12,000 FEET WITH NO
SIGNIFICANT WEATHER AND/OR OBSTRUCTIONS TO VISIBILITY.

NOT ALL STATIONS ARE QUALITY CONTROLLED. USE DATA WITH CAUTION...
ESPECIALLY DEWPOINT OBSERVATIONS.

SCZ027-030-031-034>040-042>050-181600-
...SOUTHEAST SOUTH CAROLINA...

CITY           SKY/WX    TMP DP  RH WIND       PRES   REMARKS
N CHARLESTON   MOSUNNY   90  76  63 NW8       29.99S HX 101
WATERFRONT PRK   N/A     88  78  72 NW7       29.84S HX 101
JOHNS ISLAND   FAIR      91  77  62 NW8       29.99S HX 105
PINOPOLIS        N/A     84  79  84 NW6       29.92S HX  96
MONCKS CORNER  FAIR      88  75  66 W3        29.99S HX  97
SUMMERVILLE    FAIR      90  75  62 W6        30.00S HX 100
BEAUFORT MCAS  SUNNY     91  77  63 NW8       30.00F HX 104
BEAUFORT ARPT  FAIR      88  73  62 NW3       29.99F HX  96
HILTON HEAD IS SUNNY     90  75  62 N12       30.01  HX 100
WALTERBORO     SUNNY     90  73  58 W5        30.00S HX  98
ALLENDALE      NOT AVBL

...SOUTHERN MIDLANDS AND PEE DEE...

CITY           SKY/WX    TMP DP  RH WIND       PRES   REMARKS
GEORGETOWN     FAIR      88  77  70 W7        29.99S HX 100
KINGSTREE      FAIR      88  77  70 SW6       29.97F HX 100
ORANGEBURG     SUNNY     90  72  55 W8        29.98F HX  97
BARNWELL       FAIR      93  75  55 W9        29.98F HX 104
AIKEN          FAIR      88  73  62 W10       30.02F HX  96
MANNING        FAIR      90  72  55 CALM      29.97F HX  96
COLUMBIA       MOSUNNY   92  72  51 W10       29.95F HX  99
SUMTER         SUNNY     90  72  55 SW9       29.94S HX  97
FLORENCE       SUNNY     89  76  65 W8        29.96S HX 100
MYRTLE BEACH   SUNNY     90  77  66 W9        29.98F HX 102
N MYRTLE BEACH SUNNY     89  77  67 VRB6      29.97F HX 101

$$

GAZ063-065-086>088-099>101-113>116-118-119-134>141-150-181600-
...SOUTHEAST GEORGIA...

CITY           SKY/WX    TMP DP  RH WIND       PRES   REMARKS
SAVANNAH ARPT  MOSUNNY   91  75  59 VRB5      30.00F HX 101
HUNTER AAF     SUNNY     90  76  62 NW6       29.99S HX 101
FORT STEWART   SUNNY     91  73  56 N8        29.99S HX  99
STATESBORO     SUNNY     90  67  47 NW8       30.00F HX  93
SYLVANIA       SUNNY     90  75  62 NW9       30.01S HX 101
CLAXTON        FAIR      91  74  56 W6        30.01S HX 100

...CSRA...CENTRAL AND FAR SOUTHEAST GEORGIA...

CITY           SKY/WX    TMP DP  RH WIND       PRES   REMARKS
THOMSON        MOSUNNY   88  73  61 N10       30.04F HX  96
AUGUSTA-BUSH   SUNNY     92  74  55 W12       29.97F HX 101
AUGUSTA-DANIEL SUNNY     90  71  53 W9        30.00S HX  96
SWAINSBORO     FAIR      90  73  58 NW7       30.01F HX  98
VIDALIA        SUNNY     91  73  55 W9        30.02S HX 100
EASTMAN        FAIR      91  62  37 NW6       30.04S HX  91
HAZLEHURST     FAIR      92  59  32 CALM      30.01S HX  91
ALMA           SUNNY     91  71  51 NW10      30.02S HX  97
WAYCROSS       SUNNY     90  72  54 N5        30.02S HX  96
JESUP          FAIR      91  72  52 NE6       30.02S HX  98
BAXLEY         FAIR      88  70  55 N6        30.01F HX  92
BRUNSWICK      MOSUNNY   90  73  58 N3        30.03S HX  98
SAINT SIMONS   CLOUDY    86  78  77 SE6       30.02R HX  98

$$

SCZ027-028-034-036>038-045-046-048>050-GAZ119-141-181600-
...LAKE AND SUPPLEMENTAL COASTAL OBSERVATIONS...

STATION/POSITION TIME  TEMP    WIND        PRES    WAVE   SWELL
                       AIR SEA DIR/SP/G            HT/PER HT/PER/DIR
                 (UTC) (F)     (DEG/KT/KT) (MB)    (FT/S) (FT/S/D)
WINYAH BAY       1445   88     280/  6     1015.0S
LAKE MURRAY      1520   87     270/ 11/ 17 1013.2
ACE BASIN NERRS  1445   89     300/  2     1016.0S
FORT PULASKI     1500   87 86  290/  8/  9 1016.3
SAPELO ISLAND    1500   91     330/  4     1016.0

$$

ANZ835-935-AMZ111-154-330-350-352-354-370-450-454-472-181600-
...C-MAN AND BUOY OBSERVATIONS...

STATION/POSITION TIME  TEMP    WIND        PRES    WAVE   SWELL
                       AIR SEA DIR/SP/G            HT/PER HT/PER/DIR
                 (UTC) (F)     (DEG/KT/KT) (MB)    (FT/S) (FT/S/D)
BUOY 41004       1510   84 85  230/ 12/ 14 1015.7
BUOY 41008       1450   83 85  160/  6/  6 1016.6R   1/ 8   2/110/ 8
FOLLY BEACH CMAN 1500   89     310/  6/  8 1016.2F
CAPERS NEARSHORE 1508   88 86  270/  4/  6 1015.7S
FRIPP NEARSHORE  1508   88     340/  4/  6 1015.7S


STATION/POSITION TIME  TEMP    WIND        PRES    WAVE   SWELL
                       AIR SEA DIR/SP/G            HT/PER HT/PER/DIR
                 (UTC) (F)     (DEG/KT/KT) (MB)    (FT/S) (FT/S/D)
5E ST. MARYS GA  1500      84                N/A     1/ 8
FRYING PAN BUOY  1510   84 84  220/ 12/ 14 1015.6
BUOY 41025       1450   84 86  220/ 12/ 16 1014.9R   2/ 8   2/ 70/ 8
CAPE LOOKOUT NC  1500   85     220/ 11/ 14 1014.7R
BUOY 41002       1450   84 84  230/ 10/ 10 1017.5R   2/ 4   2/110/ 8
BUOY 41010       1510   85 85  210/  6/  8 1017.9
ST AUGUSTINE FL  1500   82 82  130/  7/  8 1017.5R


$$




USA.gov is the U.S. government's official web portal to all federal, state and local government web resources and services.